Weather History for Greeley, CO

Change the Weather History Date:

Wednesday, March 27, 2013

  Actual Average Record
Temperature  
Mean Temperature 40 °F -  
Max Temperature 51 °F 57 °F 79 °F (1986)
Min Temperature 28 °F 26 °F 9 °F (1975)
Degree Days  
Heating Degree Days 26    
Moisture  
Dew Point 30 °F    
Average Humidity 70    
Maximum Humidity 86    
Minimum Humidity 47    
Precipitation  
Precipitation 0.00 in - - ()
Sea Level Pressure  
Sea Level Pressure 30.06 in    
Wind  
Wind Speed 5 mph (ESE)    
Max Wind Speed 13 mph    
Max Gust Speed 16 mph    
Visibility 10 miles    
Events      
Averages and records for this station are not official NWS values.
T = Trace of Precipitation, MM = Missing Value Source: NWS Daily Summary

Daily Weather History Graph

Daily Weather History Graph

Search for Another Location

Airport:

Trip Planner

Search our weather history database for the weather conditions in past years. The results will help you decide how hot, cold, wet, or windy it might be!

Date:

Astronomy

Mar. 27, 2013 Rise Set
Actual Time 6:49 AM MDT 7:18 PM MDT
Civil Twilight 6:22 AM MDT 7:45 PM MDT
Nautical Twilight 5:50 AM MDT 8:17 PM MDT
Astronomical Twilight 5:17 AM MDT 8:50 PM MDT
Moon 8:05 PM MDT (3/27) 6:42 AM MDT (3/27)
Length of Visible Light 13h 23m
Length of Day
12h 28m
Full, 100% of the Moon is Illuminated
Mar 27
Full
Apr 2
Last Quarter
Apr 10
New
Apr 18
First Quarter
Apr 25
Full

Hourly Weather History & Observations

Time (MDT) Temp. Windchill Dew Point Humidity Pressure Visibility Wind Dir Wind Speed Gust Speed Precip Events Conditions
12:15 AM 35.6 °F 32.8 °F 30.2 °F 81% 30.03 in 10.0 mi NW 3.5 mph - N/A   Overcast
12:35 AM 35.6 °F 31.7 °F 30.2 °F 81% 30.03 in 10.0 mi NW 4.6 mph - N/A   Overcast
12:55 AM 35.6 °F 31.7 °F 30.2 °F 81% 30.02 in 10.0 mi NNW 4.6 mph - N/A   Overcast
1:15 AM 35.6 °F - 28.4 °F 75% 30.01 in 10.0 mi Calm Calm - N/A   Overcast
1:35 AM 33.8 °F 29.6 °F 28.4 °F 81% 30.00 in 10.0 mi SE 4.6 mph - N/A   Scattered Clouds
1:55 AM 32.0 °F 25.6 °F 26.6 °F 80% 30.02 in 10.0 mi North 6.9 mph - N/A   Clear
2:15 AM 30.2 °F 22.6 °F 26.6 °F 86% 30.02 in 10.0 mi North 8.1 mph - N/A   Clear
2:35 AM 30.2 °F 22.6 °F 26.6 °F 86% 30.01 in 10.0 mi North 8.1 mph - N/A   Clear
2:55 AM 32.0 °F 24.8 °F 26.6 °F 80% 30.02 in 10.0 mi North 8.1 mph - N/A   Clear
3:15 AM 32.0 °F 27.5 °F 26.6 °F 80% 30.02 in 10.0 mi North 4.6 mph - N/A   Clear
3:35 AM 32.0 °F 28.7 °F 26.6 °F 80% 30.02 in 10.0 mi NNW 3.5 mph - N/A   Mostly Cloudy
3:55 AM 30.2 °F - 26.6 °F 86% 30.01 in 10.0 mi Calm Calm - N/A   Scattered Clouds
4:15 AM 30.2 °F 22.6 °F 26.6 °F 86% 30.01 in 10.0 mi North 8.1 mph - N/A   Mostly Cloudy
4:35 AM 30.2 °F 25.4 °F 26.6 °F 86% 30.01 in 10.0 mi North 4.6 mph - N/A   Scattered Clouds
4:55 AM 30.2 °F 25.4 °F 26.6 °F 86% 30.03 in 10.0 mi West 4.6 mph - N/A   Partly Cloudy
5:15 AM 30.2 °F 25.4 °F 26.6 °F 86% 30.03 in 10.0 mi NW 4.6 mph - N/A   Mostly Cloudy
5:35 AM 30.2 °F - 24.8 °F 80% 30.03 in 10.0 mi Calm Calm - N/A   Scattered Clouds
5:55 AM 30.2 °F - 24.8 °F 80% 30.04 in 10.0 mi Calm Calm - N/A   Clear
6:15 AM 28.4 °F 23.3 °F 24.8 °F 86% 30.04 in 9.0 mi NNW 4.6 mph - N/A   Clear
6:35 AM 28.4 °F - 24.8 °F 86% 30.05 in 10.0 mi Calm Calm - N/A   Scattered Clouds
6:55 AM 28.4 °F - 24.8 °F 86% 30.05 in 9.0 mi Calm Calm - N/A   Scattered Clouds
7:15 AM 28.4 °F 24.6 °F 24.8 °F 86% 30.06 in 9.0 mi SSW 3.5 mph - N/A   Scattered Clouds
7:35 AM 30.2 °F - 26.6 °F 86% 30.07 in 3.0 mi Calm Calm - N/A   Mostly Cloudy
7:55 AM 33.8 °F - 28.4 °F 81% 30.07 in 5.0 mi Calm Calm - N/A   Overcast
8:15 AM 32.0 °F - 26.6 °F 80% 30.07 in 8.0 mi Calm Calm - N/A   Overcast
8:35 AM 33.8 °F - 28.4 °F 81% 30.08 in 9.0 mi Calm Calm - N/A   Mostly Cloudy
8:55 AM 35.6 °F - 28.4 °F 75% 30.08 in 10.0 mi Calm Calm - N/A   Partly Cloudy
9:15 AM 37.4 °F - 30.2 °F 75% 30.08 in 10.0 mi Calm Calm - N/A   Clear
9:35 AM 37.4 °F - 30.2 °F 75% 30.09 in 10.0 mi Calm Calm - N/A   Scattered Clouds
9:55 AM 41.0 °F 38.0 °F 32.0 °F 70% 30.09 in 10.0 mi SSW 4.6 mph - N/A   Scattered Clouds
10:15 AM 44.6 °F - 33.8 °F 66% 30.09 in 10.0 mi Calm Calm - N/A   Partly Cloudy
10:35 AM 46.4 °F 43.5 °F 35.6 °F 66% 30.09 in 10.0 mi South 5.8 mph - N/A   Clear
10:55 AM 46.4 °F 45.2 °F 33.8 °F 62% 30.10 in 10.0 mi SSW 3.5 mph - N/A   Clear
11:15 AM 46.4 °F 44.3 °F 33.8 °F 62% 30.10 in 10.0 mi SSW 4.6 mph - N/A   Clear
11:35 AM 46.4 °F 44.3 °F 33.8 °F 62% 30.10 in 10.0 mi SE 4.6 mph - N/A   Clear
11:55 AM 48.2 °F - 35.6 °F 62% 30.09 in 10.0 mi SE 6.9 mph - N/A   Clear
12:15 PM 48.2 °F - 35.6 °F 62% 30.09 in 10.0 mi South 6.9 mph - N/A   Clear
12:35 PM 48.2 °F - 35.6 °F 62% 30.08 in 10.0 mi SE 8.1 mph - N/A   Clear
12:55 PM 50.0 °F - 33.8 °F 54% 30.08 in 10.0 mi SSE 9.2 mph - N/A   Clear
1:15 PM 50.0 °F - 33.8 °F 54% 30.08 in 10.0 mi South 10.4 mph - N/A   Clear
1:35 PM 50.0 °F - 32.0 °F 50% 30.08 in 10.0 mi SSE 8.1 mph - N/A   Clear
1:55 PM 51.8 °F - 33.8 °F 50% 30.07 in 10.0 mi SE 9.2 mph - N/A   Clear
2:15 PM 50.0 °F - 33.8 °F 54% 30.07 in 10.0 mi South 10.4 mph - N/A   Clear
2:35 PM 50.0 °F - 33.8 °F 54% 30.07 in 10.0 mi SE 10.4 mph - N/A   Clear
2:55 PM 50.0 °F - 30.2 °F 47% 30.06 in 10.0 mi SE 10.4 mph - N/A   Clear
3:15 PM 51.8 °F - 32.0 °F 47% 30.06 in 10.0 mi South 10.4 mph - N/A   Clear
3:35 PM 51.8 °F - 33.8 °F 50% 30.06 in 10.0 mi South 9.2 mph - N/A   Clear
3:55 PM 51.8 °F - 33.8 °F 50% 30.05 in 10.0 mi SSE 10.4 mph - N/A   Clear
4:15 PM 51.8 °F - 33.8 °F 50% 30.06 in 10.0 mi SE 11.5 mph 16.1 mph N/A   Clear
4:35 PM 51.8 °F - 33.8 °F 50% 30.05 in 10.0 mi SSE 8.1 mph - N/A   Clear
4:55 PM 50.0 °F - 33.8 °F 54% 30.05 in 10.0 mi SE 12.7 mph - N/A   Clear
5:15 PM 50.0 °F - 33.8 °F 54% 30.06 in 10.0 mi SE 12.7 mph - N/A   Clear
5:35 PM 50.0 °F - 33.8 °F 54% 30.06 in 10.0 mi SSE 10.4 mph - N/A   Clear
5:55 PM 48.2 °F - 33.8 °F 58% 30.06 in 10.0 mi SE 9.2 mph - N/A   Clear
6:15 PM 46.4 °F 41.9 °F 33.8 °F 62% 30.07 in 10.0 mi SE 9.2 mph - N/A   Clear
6:35 PM 44.6 °F 39.7 °F 33.8 °F 66% 30.07 in 10.0 mi SE 9.2 mph - N/A   Partly Cloudy
6:55 PM 44.6 °F 41.4 °F 33.8 °F 66% 30.08 in 10.0 mi SE 5.8 mph - N/A   Partly Cloudy
7:15 PM 42.8 °F 38.0 °F 32.0 °F 66% 30.08 in 10.0 mi ESE 8.1 mph - N/A   Scattered Clouds
7:35 PM 42.8 °F 37.0 °F 30.2 °F 61% 30.08 in 10.0 mi ESE 10.4 mph - N/A   Partly Cloudy
7:55 PM 41.0 °F 35.8 °F 30.2 °F 65% 30.09 in 10.0 mi ESE 8.1 mph - N/A   Scattered Clouds
8:15 PM 41.0 °F 35.2 °F 30.2 °F 65% 30.09 in 10.0 mi East 9.2 mph - N/A   Overcast
8:35 PM 39.2 °F 35.0 °F 30.2 °F 70% 30.10 in 10.0 mi East 5.8 mph - N/A   Mostly Cloudy
8:55 PM 39.2 °F 35.9 °F 30.2 °F 70% 30.10 in 10.0 mi East 4.6 mph - N/A   Partly Cloudy
9:15 PM 37.4 °F 33.8 °F 30.2 °F 75% 30.10 in 10.0 mi East 4.6 mph - N/A   Scattered Clouds
9:35 PM 37.4 °F 33.8 °F 28.4 °F 70% 30.10 in 10.0 mi ENE 4.6 mph - N/A   Scattered Clouds
9:55 PM 37.4 °F 34.9 °F 30.2 °F 75% 30.10 in 10.0 mi East 3.5 mph - N/A   Mostly Cloudy
10:15 PM 35.6 °F 31.7 °F 28.4 °F 75% 30.10 in 10.0 mi NE 4.6 mph - N/A   Partly Cloudy
10:35 PM 35.6 °F 31.7 °F 28.4 °F 75% 30.10 in 10.0 mi ENE 4.6 mph - N/A   Clear
10:55 PM 33.8 °F 28.6 °F 28.4 °F 81% 30.10 in 10.0 mi NE 5.8 mph - N/A   Clear
11:15 PM 33.8 °F 28.6 °F 28.4 °F 81% 30.10 in 10.0 mi NE 5.8 mph - N/A   Clear
11:35 PM 32.0 °F 27.5 °F 26.6 °F 80% 30.09 in 10.0 mi North 4.6 mph - N/A   Clear
11:55 PM 32.0 °F 25.6 °F 26.6 °F 80% 30.09 in 10.0 mi North 6.9 mph - N/A   Clear